sat.trackr.live / text

‹ back to catalog

STARLINK-3912

NORAD 52502 · 2022-049BD

PAYLOAD ACTIVE UNKNOWN

§ Identity

Operator
Country
US
Launch date
2022-05-06
Launch site
AFETR
Launch vehicle
Mass (kg)
RCS (m²)

Purposes: comms

External: N2YO · Heavens-Above · Gunter

§ Orbital elements

Epoch: 2026-09-19T14:20:28.641408Z

Period
93.79 min
Inclination
53.1591°
Eccentricity
0.0001086
Mean motion
15.35389005 rev/d
Perigee alt
459.0 km
Apogee alt
460.5 km
Semi-major
6,837.9 km
B*
-7.3558e-5
RAAN
241.6372°
Arg perigee
104.8712°
Mean anomaly
255.2411°
Rev number
24,189

§ Raw data

STARLINK-39121 52502U 22049BD  26262.59755372 -.00002944  00000+0 -73558-4 0  99942 52502  53.1591 241.6372 0001086 104.8712 255.2411 15.35389005241896

JSON: /api/v1/satellites/52502 · /tle

For live sub-satellite position, see the globe view (requires WebGL).

§ Visibility from observer

Set your observer location to see the next 7 days of passes ≥ 10°. The values pass through the URL so the page stays shareable.

No JS? Fill the form by hand. The geolocation button needs JavaScript.